Regional Weather Roundup
Issued by NWS Green Bay, WI

Home | Current Version | Previous Version | Graphics & Text | Print | Product List | Glossary Off
Versions: 1 2 3 4 5 6 7 8 9 10 11 12 13 14 15 16 17 18 19 20 21 22 23 24 25 26 27 28 29 30 31 32 33 34 35 36 37 38 39 40 41 42 43 44 45 46 47 48 49 50

000
ASUS43 KGRB 272210
RWRGRB

NORTH-CENTRAL AND NORTHEAST WISCONSIN REGIONAL WEATHER ROUNDUP
NATIONAL WEATHER SERVICE GREEN BAY WI
500 PM CDT MON APR 27 2015

WIZ005-009-010>012-018-019-272300-
NORTH CENTRAL WISCONSIN

CITY           SKY/WX    TMP DP  RH WIND       PRES   REMARKS
IRONWOOD       SUNNY     57  28  33 N10       30.15S
MANITOWISH WTR SUNNY     59  28  31 N9        30.15S
ARBOR VITAE    SUNNY     62  27  26 N15       30.14S
EAGLE RIVER    SUNNY     60  23  24 N8G18     30.13S
LAND O LAKES   SUNNY     58  25  28 N13       30.15S
RHINELANDER    SUNNY     62  24  23 NW12G21   30.13R
PHILLIPS       SUNNY     62  31  30 N14       30.14S
ANTIGO         SUNNY     62  29  28 N12G17    30.10S
TOMAHAWK       SUNNY     63  28  27 NW8       30.13S
MERRILL        SUNNY     65  31  28 N14       30.10S
$$

WIZ013-073-272300-
NORTHEAST WISCONSIN

CITY           SKY/WX    TMP DP  RH WIND       PRES   REMARKS
IRON MOUNTAIN  SUNNY     64  28  25 N14       30.09R
MARINETTE      SUNNY     52  34  50 E7        30.11S
OCONTO         SUNNY     55  34  46 E7        30.11S
$$

WIZ017-030-035>037-045-272300-
CENTRAL WISCONSIN

CITY           SKY/WX    TMP DP  RH WIND       PRES   REMARKS
MEDFORD        SUNNY     64  31  28 N10       30.11F
WAUSAU         SUNNY     66  28  24 N9        30.08S
MOSINEE        NOT AVBL
MARSHFIELD     SUNNY     68  29  23 N12       30.10F
WISC RAPIDS    SUNNY     68  27  21 VRB6      30.10F
STEVENS POINT  SUNNY     65  29  26 N13       30.09S
WAUPACA        SUNNY     70  25  18 N10G17    30.07S
SHAWANO        SUNNY     66  33  29 E3        30.08S
CLINTONVILLE   SUNNY     64  32  29 E7        30.07R
$$

WIZ038-039-048-051-272300-
FOX VALLEY

CITY           SKY/WX    TMP DP  RH WIND       PRES   REMARKS
NWS GREEN BAY  SUNNY     61  35  37 NE7       30.10S
APPLETON       MOSUNNY   63  28  27 VRB6      30.08F
OSHKOSH        SUNNY     62  33  33 E8        30.08F
FOND DU LAC    SUNNY     62  31  31 NE9       30.09F
$$

WIZ022-050-052-272300-
EAST CENTRAL WISCONSIN

CITY           SKY/WX    TMP DP  RH WIND       PRES   REMARKS
STURGEON BAY   SUNNY     50  32  50 E12       30.13S
MANITOWOC      SUNNY     49  36  61 SE10      30.12S
SHEBOYGAN      MOSUNNY   50  34  54 E13       30.12F
$$

LMZ563-521-522-541>543-272300-
LAKESHORE

STATION/POSITION TIME  TEMP    WIND        PRES    VSBY  WAVE
                       AIR SEA DIR/SP/G                  HT/PER
                 (UTC) (F)     (DEG/KT/KT) (MB)    (MI)  (FT/S)
SHEBOYGAN LKSHOR 2200   42      CALM  /  5 1020.9F
KEWAUNEE LKSHORE 2200   44     100/  2/  4 1019.3F
TWO RIVERS CG    2100   44                 1019.9      6   0
NORTHPORT PIER   2200   44     140/  4/  5 1019.6F
CHAMBERS ISLAND  2200   49      60/ 12/ 15 1019.3F
MENOMINEE LKSHOR 2200   47      10/  2/  2 1020.1F
$$



USA.gov is the U.S. government's official web portal to all federal, state and local government web resources and services.